contact:dominique.lefevre@mio.osupytheas.fr, maurice.libes@osupytheas.fr, didier.mallarino@osupytheas.fr
Project:EMSO http://www.emso-fr.org/EMSO-France
Depth: 2436.0 m
Title:EMSO Ligure Ouest : Data MII capteur OXYGEN
DateTime,Latitude,Longitude,Optode-Type,Optode_Serial,Oxygen,Saturation_Oxygen,Temperature
DateTime,Latitude,Longitude,Optode-Type,Optode_Serial,µmol.l-1,%,degC
2017-11-21T00:01:04,42.805,6.029,4330,1995,195.111,59.666,13.287
2017-11-21T00:04:04,42.805,6.029,4330,1995,195.467,59.774,13.286
2017-11-21T00:07:04,42.805,6.029,4330,1995,195.801,59.877,13.287
2017-11-21T00:10:04,42.805,6.029,4330,1995,195.973,59.930,13.287
2017-11-21T00:13:04,42.805,6.029,4330,1995,195.988,59.934,13.287
2017-11-21T00:16:04,42.805,6.029,4330,1995,196.039,59.950,13.287
2017-11-21T00:19:04,42.805,6.029,4330,1995,196.107,59.970,13.287
2017-11-21T00:22:04,42.805,6.029,4330,1995,196.167,59.989,13.287
2017-11-21T00:25:04,42.805,6.029,4330,1995,196.177,59.993,13.287
2017-11-21T00:28:04,42.805,6.029,4330,1995,196.052,59.955,13.287
2017-11-21T00:31:04,42.805,6.029,4330,1995,196.057,59.955,13.287
2017-11-21T00:34:04,42.805,6.029,4330,1995,196.116,59.974,13.287
2017-11-21T00:37:04,42.805,6.029,4330,1995,196.115,59.973,13.287
2017-11-21T00:40:04,42.805,6.029,4330,1995,196.219,60.004,13.286
2017-11-21T00:43:04,42.805,6.029,4330,1995,196.277,60.023,13.287
2017-11-21T00:46:04,42.805,6.029,4330,1995,196.233,60.009,13.287
2017-11-21T00:49:04,42.805,6.029,4330,1995,196.204,60.000,13.286
2017-11-21T00:52:04,42.805,6.029,4330,1995,196.308,60.031,13.286
2017-11-21T00:55:04,42.805,6.029,4330,1995,196.306,60.031,13.286
2017-11-21T00:58:04,42.805,6.029,4330,1995,196.317,60.034,13.286
2017-11-21T01:01:04,42.805,6.029,4330,1995,196.324,60.036,13.286
2017-11-21T01:04:04,42.805,6.029,4330,1995,196.247,60.013,13.286
2017-11-21T01:07:04,42.805,6.029,4330,1995,196.229,60.007,13.286
2017-11-21T01:10:04,42.805,6.029,4330,1995,196.444,60.072,13.286
2017-11-21T01:13:04,42.805,6.029,4330,1995,196.506,60.091,13.286
2017-11-21T01:16:04,42.805,6.029,4330,1995,196.368,60.049,13.286
2017-11-21T01:19:04,42.805,6.029,4330,1995,196.278,60.022,13.286
2017-11-21T01:22:04,42.805,6.029,4330,1995,196.315,60.033,13.286
2017-11-21T01:25:04,42.805,6.029,4330,1995,196.325,60.036,13.286
2017-11-21T01:28:04,42.805,6.029,4330,1995,196.368,60.049,13.286
2017-11-21T01:31:04,42.805,6.029,4330,1995,196.371,60.050,13.286
2017-11-21T01:34:04,42.805,6.029,4330,1995,196.387,60.055,13.286
2017-11-21T01:37:04,42.805,6.029,4330,1995,196.362,60.047,13.286
2017-11-21T01:40:04,42.805,6.029,4330,1995,196.543,60.103,13.286
2017-11-21T01:43:04,42.805,6.029,4330,1995,196.539,60.101,13.286
2017-11-21T01:46:04,42.805,6.029,4330,1995,196.655,60.137,13.286
2017-11-21T01:49:04,42.805,6.029,4330,1995,196.709,60.153,13.286
2017-11-21T01:52:04,42.805,6.029,4330,1995,196.651,60.136,13.286
2017-11-21T01:55:04,42.805,6.029,4330,1995,196.603,60.121,13.286
2017-11-21T01:58:04,42.805,6.029,4330,1995,196.471,60.081,13.286
2017-11-21T02:01:04,42.805,6.029,4330,1995,196.431,60.068,13.286
2017-11-21T02:04:04,42.805,6.029,4330,1995,196.532,60.099,13.286
2017-11-21T02:07:04,42.805,6.029,4330,1995,196.396,60.058,13.286
2017-11-21T02:10:04,42.805,6.029,4330,1995,196.323,60.035,13.286
2017-11-21T02:13:04,42.805,6.029,4330,1995,196.262,60.017,13.286
2017-11-21T02:16:04,42.805,6.029,4330,1995,196.153,59.984,13.286
2017-11-21T02:19:04,42.805,6.029,4330,1995,196.319,60.034,13.286
2017-11-21T02:22:04,42.805,6.029,4330,1995,196.394,60.057,13.286
2017-11-21T02:25:04,42.805,6.029,4330,1995,196.308,60.031,13.286
2017-11-21T02:28:04,42.805,6.029,4330,1995,196.330,60.038,13.286
2017-11-21T02:31:04,42.805,6.029,4330,1995,196.304,60.029,13.286
2017-11-21T02:34:04,42.805,6.029,4330,1995,196.309,60.031,13.286
2017-11-21T02:37:04,42.805,6.029,4330,1995,196.193,59.996,13.286
2017-11-21T02:40:04,42.805,6.029,4330,1995,196.097,59.966,13.286
2017-11-21T02:43:04,42.805,6.029,4330,1995,196.128,59.976,13.286
2017-11-21T02:46:04,42.805,6.029,4330,1995,196.161,59.986,13.286
2017-11-21T02:49:04,42.805,6.029,4330,1995,196.260,60.016,13.286
2017-11-21T02:52:04,42.805,6.029,4330,1995,196.357,60.045,13.286
2017-11-21T02:55:04,42.805,6.029,4330,1995,196.425,60.066,13.286
2017-11-21T02:58:04,42.805,6.029,4330,1995,196.324,60.036,13.286
2017-11-21T03:01:04,42.805,6.029,4330,1995,196.381,60.053,13.286
2017-11-21T03:04:04,42.805,6.029,4330,1995,196.421,60.065,13.286
2017-11-21T03:07:04,42.805,6.029,4330,1995,196.450,60.074,13.286
2017-11-21T03:10:04,42.805,6.029,4330,1995,196.460,60.077,13.286
2017-11-21T03:13:04,42.805,6.029,4330,1995,196.424,60.066,13.286
2017-11-21T03:16:04,42.805,6.029,4330,1995,196.419,60.064,13.286
2017-11-21T03:19:04,42.805,6.029,4330,1995,196.486,60.085,13.286
2017-11-21T03:22:04,42.805,6.029,4330,1995,196.488,60.085,13.286
2017-11-21T03:25:04,42.805,6.029,4330,1995,196.448,60.073,13.286
2017-11-21T03:28:04,42.805,6.029,4330,1995,196.400,60.059,13.286
2017-11-21T03:31:04,42.805,6.029,4330,1995,196.432,60.069,13.286
2017-11-21T03:34:04,42.805,6.029,4330,1995,196.345,60.042,13.286
2017-11-21T03:37:04,42.805,6.029,4330,1995,196.348,60.043,13.286
2017-11-21T03:40:04,42.805,6.029,4330,1995,196.303,60.029,13.286
2017-11-21T03:43:04,42.805,6.029,4330,1995,196.337,60.039,13.286
2017-11-21T03:46:04,42.805,6.029,4330,1995,196.247,60.012,13.286
2017-11-21T03:49:04,42.805,6.029,4330,1995,196.269,60.019,13.286
2017-11-21T03:52:04,42.805,6.029,4330,1995,196.375,60.051,13.286
2017-11-21T03:55:04,42.805,6.029,4330,1995,196.304,60.029,13.286
2017-11-21T03:58:04,42.805,6.029,4330,1995,196.323,60.035,13.286
2017-11-21T04:01:04,42.805,6.029,4330,1995,196.375,60.051,13.286
2017-11-21T04:04:04,42.805,6.029,4330,1995,196.296,60.027,13.286
2017-11-21T04:07:04,42.805,6.029,4330,1995,196.422,60.065,13.286
2017-11-21T04:10:04,42.805,6.029,4330,1995,196.450,60.074,13.286
2017-11-21T04:13:04,42.805,6.029,4330,1995,196.445,60.073,13.286
2017-11-21T04:16:04,42.805,6.029,4330,1995,196.513,60.093,13.286
2017-11-21T04:19:04,42.805,6.029,4330,1995,196.632,60.129,13.286
2017-11-21T04:22:04,42.805,6.029,4330,1995,196.652,60.135,13.286
2017-11-21T04:25:04,42.805,6.029,4330,1995,196.593,60.118,13.285
2017-11-21T04:28:04,42.805,6.029,4330,1995,196.601,60.120,13.285
2017-11-21T04:31:04,42.805,6.029,4330,1995,196.630,60.129,13.286
2017-11-21T04:34:04,42.805,6.029,4330,1995,196.626,60.128,13.286
2017-11-21T04:37:04,42.805,6.029,4330,1995,196.702,60.151,13.285
2017-11-21T04:40:04,42.805,6.029,4330,1995,196.664,60.139,13.285
2017-11-21T04:43:04,42.805,6.029,4330,1995,196.627,60.128,13.285
2017-11-21T04:46:04,42.805,6.029,4330,1995,196.722,60.157,13.286
2017-11-21T04:49:04,42.805,6.029,4330,1995,196.709,60.153,13.286
2017-11-21T04:52:04,42.805,6.029,4330,1995,196.742,60.163,13.286
2017-11-21T04:55:04,42.805,6.029,4330,1995,196.795,60.179,13.286
2017-11-21T04:58:04,42.805,6.029,4330,1995,196.768,60.171,13.285
2017-11-21T05:01:04,42.805,6.029,4330,1995,196.770,60.171,13.285
2017-11-21T05:04:04,42.805,6.029,4330,1995,196.882,60.206,13.285
2017-11-21T05:07:04,42.805,6.029,4330,1995,197.004,60.243,13.285
2017-11-21T05:10:04,42.805,6.029,4330,1995,196.974,60.234,13.285
2017-11-21T05:13:04,42.805,6.029,4330,1995,197.022,60.248,13.285
2017-11-21T05:16:04,42.805,6.029,4330,1995,197.029,60.251,13.285
2017-11-21T05:19:04,42.805,6.029,4330,1995,196.991,60.239,13.285
2017-11-21T05:22:04,42.805,6.029,4330,1995,197.116,60.277,13.285
2017-11-21T05:25:04,42.805,6.029,4330,1995,197.143,60.286,13.285
2017-11-21T05:28:04,42.805,6.029,4330,1995,197.190,60.300,13.285
2017-11-21T05:31:04,42.805,6.029,4330,1995,197.282,60.328,13.285
2017-11-21T05:34:04,42.805,6.029,4330,1995,197.358,60.351,13.285
2017-11-21T05:37:04,42.805,6.029,4330,1995,197.435,60.375,13.285
2017-11-21T05:40:04,42.805,6.029,4330,1995,197.410,60.367,13.285
2017-11-21T05:43:04,42.805,6.029,4330,1995,197.562,60.414,13.285
2017-11-21T05:46:04,42.805,6.029,4330,1995,197.579,60.419,13.285
2017-11-21T05:49:04,42.805,6.029,4330,1995,197.492,60.392,13.285
2017-11-21T05:52:04,42.805,6.029,4330,1995,197.516,60.400,13.285
2017-11-21T05:55:04,42.805,6.029,4330,1995,197.567,60.415,13.286
2017-11-21T05:58:04,42.805,6.029,4330,1995,197.645,60.439,13.285
2017-11-21T06:01:04,42.805,6.029,4330,1995,197.716,60.461,13.285
2017-11-21T06:04:04,42.805,6.029,4330,1995,197.773,60.478,13.285
2017-11-21T06:07:04,42.805,6.029,4330,1995,197.695,60.455,13.286
2017-11-21T06:10:04,42.805,6.029,4330,1995,197.758,60.473,13.285
2017-11-21T06:13:04,42.805,6.029,4330,1995,197.675,60.448,13.285
2017-11-21T06:16:04,42.805,6.029,4330,1995,197.650,60.441,13.286
2017-11-21T06:19:04,42.805,6.029,4330,1995,197.668,60.446,13.285
2017-11-21T06:22:04,42.805,6.029,4330,1995,197.712,60.460,13.286
2017-11-21T06:25:04,42.805,6.029,4330,1995,197.628,60.434,13.286
2017-11-21T06:28:04,42.805,6.029,4330,1995,197.577,60.418,13.285
2017-11-21T06:31:04,42.805,6.029,4330,1995,197.582,60.420,13.286
2017-11-21T06:34:04,42.805,6.029,4330,1995,197.589,60.422,13.285
2017-11-21T06:37:04,42.805,6.029,4330,1995,197.737,60.467,13.285
2017-11-21T06:40:04,42.805,6.029,4330,1995,197.694,60.454,13.285
2017-11-21T06:43:04,42.805,6.029,4330,1995,197.735,60.467,13.285
2017-11-21T06:46:04,42.805,6.029,4330,1995,197.701,60.456,13.286
2017-11-21T06:49:04,42.805,6.029,4330,1995,197.701,60.456,13.285
2017-11-21T06:52:04,42.805,6.029,4330,1995,197.712,60.460,13.285
2017-11-21T06:55:04,42.805,6.029,4330,1995,197.700,60.456,13.285
2017-11-21T06:58:04,42.805,6.029,4330,1995,197.762,60.475,13.285
2017-11-21T07:01:04,42.805,6.029,4330,1995,197.786,60.482,13.285
2017-11-21T07:04:04,42.805,6.029,4330,1995,197.841,60.499,13.285
2017-11-21T07:07:04,42.805,6.029,4330,1995,197.827,60.495,13.286
2017-11-21T07:10:04,42.805,6.029,4330,1995,197.866,60.507,13.286
2017-11-21T07:13:04,42.805,6.029,4330,1995,197.867,60.507,13.286
2017-11-21T07:16:04,42.805,6.029,4330,1995,197.887,60.514,13.286
2017-11-21T07:19:04,42.805,6.029,4330,1995,197.888,60.514,13.286
2017-11-21T07:22:04,42.805,6.029,4330,1995,197.870,60.509,13.286
2017-11-21T07:25:04,42.805,6.029,4330,1995,197.809,60.490,13.286
2017-11-21T07:28:04,42.805,6.029,4330,1995,197.733,60.467,13.286
2017-11-21T07:31:04,42.805,6.029,4330,1995,197.713,60.461,13.286
2017-11-21T07:34:04,42.805,6.029,4330,1995,197.685,60.452,13.286
2017-11-21T07:37:04,42.805,6.029,4330,1995,197.720,60.463,13.286
2017-11-21T07:40:04,42.805,6.029,4330,1995,197.721,60.463,13.286
2017-11-21T07:43:04,42.805,6.029,4330,1995,197.662,60.445,13.286
2017-11-21T07:46:04,42.805,6.029,4330,1995,197.597,60.426,13.286
2017-11-21T07:49:04,42.805,6.029,4330,1995,197.531,60.406,13.286
2017-11-21T07:52:04,42.805,6.029,4330,1995,197.557,60.414,13.286
2017-11-21T07:55:04,42.805,6.029,4330,1995,197.439,60.378,13.286
2017-11-21T07:58:04,42.805,6.029,4330,1995,197.459,60.384,13.287
2017-11-21T08:01:04,42.805,6.029,4330,1995,197.419,60.371,13.286
2017-11-21T08:04:04,42.805,6.029,4330,1995,197.418,60.371,13.286
2017-11-21T08:07:04,42.805,6.029,4330,1995,197.361,60.354,13.286
2017-11-21T08:10:04,42.805,6.029,4330,1995,197.216,60.309,13.286
2017-11-21T08:13:04,42.805,6.029,4330,1995,197.279,60.328,13.286
2017-11-21T08:16:04,42.805,6.029,4330,1995,197.191,60.302,13.286
2017-11-21T08:19:04,42.805,6.029,4330,1995,197.152,60.290,13.287
2017-11-21T08:22:04,42.805,6.029,4330,1995,197.149,60.289,13.286
2017-11-21T08:25:04,42.805,6.029,4330,1995,197.062,60.262,13.286
2017-11-21T08:28:04,42.805,6.029,4330,1995,196.967,60.233,13.287
2017-11-21T08:31:04,42.805,6.029,4330,1995,196.956,60.230,13.286
2017-11-21T08:34:04,42.805,6.029,4330,1995,197.057,60.261,13.286
2017-11-21T08:37:04,42.805,6.029,4330,1995,197.081,60.268,13.286
2017-11-21T08:40:04,42.805,6.029,4330,1995,197.061,60.262,13.287
2017-11-21T08:43:04,42.805,6.029,4330,1995,197.046,60.258,13.287
2017-11-21T08:46:04,42.805,6.029,4330,1995,197.001,60.243,13.286
2017-11-21T08:49:04,42.805,6.029,4330,1995,197.031,60.253,13.287
2017-11-21T08:52:04,42.805,6.029,4330,1995,197.052,60.260,13.287
2017-11-21T08:55:04,42.805,6.029,4330,1995,197.078,60.267,13.286
2017-11-21T08:58:04,42.805,6.029,4330,1995,197.077,60.267,13.286
2017-11-21T09:01:04,42.805,6.029,4330,1995,196.999,60.243,13.286
2017-11-21T09:04:04,42.805,6.029,4330,1995,197.011,60.246,13.286
2017-11-21T09:07:04,42.805,6.029,4330,1995,196.919,60.218,13.286
2017-11-21T09:10:04,42.805,6.029,4330,1995,196.902,60.214,13.287
2017-11-21T09:13:04,42.805,6.029,4330,1995,196.720,60.158,13.286
2017-11-21T09:16:04,42.805,6.029,4330,1995,196.787,60.178,13.287
2017-11-21T09:19:04,42.805,6.029,4330,1995,196.836,60.194,13.287
2017-11-21T09:22:04,42.805,6.029,4330,1995,196.927,60.222,13.287
2017-11-21T09:25:04,42.805,6.029,4330,1995,196.978,60.237,13.287
2017-11-21T09:28:04,42.805,6.029,4330,1995,196.830,60.191,13.286
2017-11-21T09:31:04,42.805,6.029,4330,1995,196.808,60.186,13.287
2017-11-21T09:34:04,42.805,6.029,4330,1995,196.818,60.188,13.287
2017-11-21T09:37:04,42.805,6.029,4330,1995,196.721,60.158,13.287
2017-11-21T09:40:04,42.805,6.029,4330,1995,196.763,60.171,13.287
2017-11-21T09:43:04,42.805,6.029,4330,1995,196.790,60.179,13.287
2017-11-21T09:46:04,42.805,6.029,4330,1995,196.719,60.158,13.287
2017-11-21T09:49:04,42.805,6.029,4330,1995,196.607,60.123,13.287
2017-11-21T09:52:04,42.805,6.029,4330,1995,196.616,60.126,13.287
2017-11-21T09:55:04,42.805,6.029,4330,1995,196.545,60.105,13.287
2017-11-21T09:58:04,42.805,6.029,4330,1995,196.571,60.111,13.286
2017-11-21T10:01:04,42.805,6.029,4330,1995,196.641,60.134,13.287
2017-11-21T10:04:04,42.805,6.029,4330,1995,196.668,60.143,13.287
2017-11-21T10:07:04,42.805,6.029,4330,1995,196.478,60.084,13.287
2017-11-21T10:10:04,42.805,6.029,4330,1995,196.438,60.072,13.287
2017-11-21T10:13:04,42.805,6.029,4330,1995,196.554,60.107,13.286
2017-11-21T10:16:04,42.805,6.029,4330,1995,196.605,60.123,13.287
2017-11-21T10:19:04,42.805,6.029,4330,1995,196.556,60.107,13.286
2017-11-21T10:22:04,42.805,6.029,4330,1995,196.408,60.062,13.287
2017-11-21T10:25:04,42.805,6.029,4330,1995,196.370,60.052,13.287
2017-11-21T10:28:04,42.805,6.029,4330,1995,196.460,60.079,13.287
2017-11-21T10:31:04,42.805,6.029,4330,1995,196.463,60.080,13.287
2017-11-21T10:34:04,42.805,6.029,4330,1995,196.420,60.068,13.288
2017-11-21T10:37:04,42.805,6.029,4330,1995,196.526,60.098,13.286
2017-11-21T10:40:04,42.805,6.029,4330,1995,196.669,60.142,13.287
2017-11-21T10:43:04,42.805,6.029,4330,1995,196.707,60.155,13.287
2017-11-21T10:46:04,42.805,6.029,4330,1995,196.630,60.131,13.287
2017-11-21T10:49:04,42.805,6.029,4330,1995,196.556,60.108,13.287
2017-11-21T10:52:04,42.805,6.029,4330,1995,196.623,60.129,13.287
2017-11-21T10:55:04,42.805,6.029,4330,1995,196.529,60.099,13.287
2017-11-21T10:58:04,42.805,6.029,4330,1995,196.727,60.162,13.288
2017-11-21T11:01:04,42.805,6.029,4330,1995,196.805,60.184,13.287
2017-11-21T11:04:04,42.805,6.029,4330,1995,196.851,60.198,13.287
2017-11-21T11:07:04,42.805,6.029,4330,1995,196.849,60.199,13.288
2017-11-21T11:10:04,42.805,6.029,4330,1995,196.653,60.137,13.286
2017-11-21T11:13:04,42.805,6.029,4330,1995,196.576,60.115,13.287
2017-11-21T11:16:04,42.805,6.029,4330,1995,196.498,60.090,13.287
2017-11-21T11:19:04,42.805,6.029,4330,1995,196.492,60.088,13.287
2017-11-21T11:22:04,42.805,6.029,4330,1995,196.468,60.082,13.288
2017-11-21T11:25:04,42.805,6.029,4330,1995,196.589,60.117,13.286
2017-11-21T11:28:04,42.805,6.029,4330,1995,196.678,60.145,13.287
2017-11-21T11:31:04,42.805,6.029,4330,1995,196.742,60.165,13.287
2017-11-21T11:34:04,42.805,6.029,4330,1995,196.631,60.132,13.287
2017-11-21T11:37:04,42.805,6.029,4330,1995,196.621,60.128,13.287
2017-11-21T11:40:04,42.805,6.029,4330,1995,196.512,60.097,13.288
2017-11-21T11:43:04,42.805,6.029,4330,1995,196.627,60.131,13.288
2017-11-21T11:46:04,42.805,6.029,4330,1995,196.559,60.111,13.288
2017-11-21T11:49:04,42.805,6.029,4330,1995,196.734,60.163,13.287
2017-11-21T11:52:04,42.805,6.029,4330,1995,196.795,60.182,13.288
2017-11-21T11:55:04,42.805,6.029,4330,1995,196.745,60.168,13.288
2017-11-21T11:58:04,42.805,6.029,4330,1995,196.901,60.214,13.288
2017-11-21T12:01:04,42.805,6.029,4330,1995,196.831,60.192,13.287
2017-11-21T12:04:04,42.805,6.029,4330,1995,196.697,60.151,13.287
2017-11-21T12:07:04,42.805,6.029,4330,1995,196.994,60.242,13.287
2017-11-21T12:10:04,42.805,6.029,4330,1995,197.072,60.266,13.287
2017-11-21T12:13:04,42.805,6.029,4330,1995,197.001,60.245,13.287
2017-11-21T12:16:04,42.805,6.029,4330,1995,197.017,60.250,13.288
2017-11-21T12:19:04,42.805,6.029,4330,1995,197.086,60.270,13.287
2017-11-21T12:22:04,42.805,6.029,4330,1995,196.891,60.211,13.287
2017-11-21T12:25:04,42.805,6.029,4330,1995,197.005,60.246,13.287
2017-11-21T12:28:04,42.805,6.029,4330,1995,196.889,60.210,13.287
2017-11-21T12:31:04,42.805,6.029,4330,1995,196.814,60.188,13.288
2017-11-21T12:34:04,42.805,6.029,4330,1995,196.932,60.222,13.286
2017-11-21T12:37:04,42.805,6.029,4330,1995,196.948,60.230,13.289
2017-11-21T12:40:04,42.805,6.029,4330,1995,196.990,60.241,13.287
2017-11-21T12:43:04,42.805,6.029,4330,1995,196.981,60.237,13.286
2017-11-21T12:46:04,42.805,6.029,4330,1995,196.866,60.203,13.287
2017-11-21T12:49:04,42.805,6.029,4330,1995,196.963,60.232,13.286
2017-11-21T12:52:04,42.805,6.029,4330,1995,196.946,60.227,13.287
2017-11-21T12:55:04,42.805,6.029,4330,1995,196.672,60.144,13.288
2017-11-21T12:58:04,42.805,6.029,4330,1995,196.303,60.032,13.287
2017-11-21T13:01:04,42.805,6.029,4330,1995,196.204,60.001,13.288
2017-11-21T13:04:04,42.805,6.029,4330,1995,196.114,59.974,13.287
2017-11-21T13:07:04,42.805,6.029,4330,1995,196.090,59.966,13.287
2017-11-21T13:10:04,42.805,6.029,4330,1995,196.098,59.969,13.287
2017-11-21T13:13:04,42.805,6.029,4330,1995,196.080,59.963,13.287
2017-11-21T13:16:04,42.805,6.029,4330,1995,196.024,59.947,13.288
2017-11-21T13:19:04,42.805,6.029,4330,1995,195.897,59.907,13.287
2017-11-21T13:22:04,42.805,6.029,4330,1995,196.062,59.958,13.288
2017-11-21T13:25:04,42.805,6.029,4330,1995,196.180,59.993,13.287
2017-11-21T13:28:04,42.805,6.029,4330,1995,196.122,59.977,13.288
2017-11-21T13:31:04,42.805,6.029,4330,1995,196.199,60.000,13.288
2017-11-21T13:34:04,42.805,6.029,4330,1995,196.091,59.967,13.288
2017-11-21T13:37:04,42.805,6.029,4330,1995,196.134,59.980,13.288
2017-11-21T13:40:04,42.805,6.029,4330,1995,196.133,59.979,13.287
2017-11-21T13:43:04,42.805,6.029,4330,1995,196.183,59.994,13.287
2017-11-21T13:46:03,42.805,6.029,4330,1995,196.240,60.012,13.287
2017-11-21T13:49:03,42.805,6.029,4330,1995,196.214,60.003,13.287
2017-11-21T13:52:03,42.805,6.029,4330,1995,196.121,59.976,13.287
2017-11-21T13:55:03,42.805,6.029,4330,1995,195.868,59.898,13.287
2017-11-21T13:58:03,42.805,6.029,4330,1995,196.119,59.974,13.287
2017-11-21T14:01:03,42.805,6.029,4330,1995,196.196,59.998,13.287
2017-11-21T14:04:03,42.805,6.029,4330,1995,196.162,59.989,13.288
2017-11-21T14:07:03,42.805,6.029,4330,1995,196.211,60.004,13.288
2017-11-21T14:10:03,42.805,6.029,4330,1995,196.243,60.014,13.288
2017-11-21T14:13:03,42.805,6.029,4330,1995,196.190,59.996,13.287
2017-11-21T14:16:03,42.805,6.029,4330,1995,196.311,60.034,13.288
2017-11-21T14:19:03,42.805,6.029,4330,1995,196.290,60.027,13.287
2017-11-21T14:22:03,42.805,6.029,4330,1995,196.363,60.050,13.288
2017-11-21T14:25:03,42.805,6.029,4330,1995,196.224,60.008,13.288
2017-11-21T14:28:03,42.805,6.029,4330,1995,196.472,60.083,13.287
2017-11-21T14:31:03,42.805,6.029,4330,1995,196.589,60.118,13.287
2017-11-21T14:34:03,42.805,6.029,4330,1995,196.475,60.084,13.287
2017-11-21T14:37:03,42.805,6.029,4330,1995,196.450,60.085,13.294
2017-11-21T14:40:03,42.805,6.029,4330,1995,196.262,60.021,13.289
2017-11-21T14:43:03,42.805,6.029,4330,1995,196.072,59.961,13.287
2017-11-21T14:46:03,42.805,6.029,4330,1995,196.258,60.017,13.287
2017-11-21T14:49:03,42.805,6.029,4330,1995,196.136,59.981,13.288
2017-11-21T14:52:03,42.805,6.029,4330,1995,196.230,60.010,13.288
2017-11-21T14:55:03,42.805,6.029,4330,1995,196.099,59.969,13.287
2017-11-21T14:58:03,42.805,6.029,4330,1995,196.159,59.988,13.288
2017-11-21T15:01:03,42.805,6.029,4330,1995,196.199,60.000,13.287
2017-11-21T15:04:03,42.805,6.029,4330,1995,196.273,60.022,13.287
2017-11-21T15:07:03,42.805,6.029,4330,1995,196.259,60.020,13.289
2017-11-21T15:10:03,42.805,6.029,4330,1995,195.998,59.938,13.287
2017-11-21T15:13:03,42.805,6.029,4330,1995,196.114,59.973,13.287
2017-11-21T15:16:03,42.805,6.029,4330,1995,196.201,60.004,13.290
2017-11-21T15:19:03,42.805,6.029,4330,1995,196.044,59.952,13.287
2017-11-21T15:22:03,42.805,6.029,4330,1995,196.029,59.948,13.288
2017-11-21T15:25:03,42.805,6.029,4330,1995,195.971,59.932,13.289
2017-11-21T15:28:03,42.805,6.029,4330,1995,195.851,59.895,13.289
2017-11-21T15:31:03,42.805,6.029,4330,1995,195.822,59.883,13.286
2017-11-21T15:34:03,42.805,6.029,4330,1995,195.816,59.886,13.290
2017-11-21T15:37:03,42.805,6.029,4330,1995,195.586,59.815,13.290
2017-11-21T15:40:03,42.805,6.029,4330,1995,195.354,59.744,13.290
2017-11-21T15:43:03,42.805,6.029,4330,1995,194.873,59.596,13.289
2017-11-21T15:46:03,42.805,6.029,4330,1995,194.629,59.527,13.293
2017-11-21T15:49:03,42.805,6.029,4330,1995,194.394,59.454,13.292
2017-11-21T15:52:03,42.805,6.029,4330,1995,194.180,59.391,13.294
2017-11-21T15:55:03,42.805,6.029,4330,1995,193.980,59.324,13.290
2017-11-21T15:58:03,42.805,6.029,4330,1995,194.047,59.345,13.290
2017-11-21T16:01:03,42.805,6.029,4330,1995,193.862,59.288,13.290
2017-11-21T16:04:03,42.805,6.029,4330,1995,194.099,59.359,13.289
2017-11-21T16:07:03,42.805,6.029,4330,1995,194.219,59.396,13.289
2017-11-21T16:10:03,42.805,6.029,4330,1995,194.349,59.435,13.288
2017-11-21T16:13:03,42.805,6.029,4330,1995,194.599,59.511,13.288
2017-11-21T16:16:03,42.805,6.029,4330,1995,194.559,59.499,13.288
2017-11-21T16:19:03,42.805,6.029,4330,1995,194.394,59.452,13.291
2017-11-21T16:22:03,42.805,6.029,4330,1995,194.206,59.393,13.290
2017-11-21T16:25:03,42.805,6.029,4330,1995,194.033,59.341,13.290
2017-11-21T16:28:03,42.805,6.029,4330,1995,194.150,59.376,13.290
2017-11-21T16:31:03,42.805,6.029,4330,1995,194.077,59.353,13.289
2017-11-21T16:34:03,42.805,6.029,4330,1995,194.117,59.366,13.290
2017-11-21T16:37:03,42.805,6.029,4330,1995,193.977,59.323,13.289
2017-11-21T16:40:03,42.805,6.029,4330,1995,193.837,59.280,13.289
2017-11-21T16:43:03,42.805,6.029,4330,1995,193.795,59.267,13.289
2017-11-21T16:46:03,42.805,6.029,4330,1995,194.255,59.409,13.290
2017-11-21T16:49:03,42.805,6.029,4330,1995,194.134,59.370,13.289
2017-11-21T16:52:03,42.805,6.029,4330,1995,193.973,59.321,13.289
2017-11-21T16:55:03,42.805,6.029,4330,1995,194.002,59.328,13.288
2017-11-21T16:58:03,42.805,6.029,4330,1995,194.321,59.425,13.287
2017-11-21T17:01:03,42.805,6.029,4330,1995,194.742,59.553,13.287
2017-11-21T17:04:03,42.805,6.029,4330,1995,195.117,59.668,13.287
2017-11-21T17:07:03,42.805,6.029,4330,1995,195.275,59.717,13.287
2017-11-21T17:10:03,42.805,6.029,4330,1995,195.371,59.747,13.288
2017-11-21T17:13:03,42.805,6.029,4330,1995,195.499,59.785,13.287
2017-11-21T17:16:03,42.805,6.029,4330,1995,195.703,59.847,13.287
2017-11-21T17:19:03,42.805,6.029,4330,1995,195.699,59.846,13.287
2017-11-21T17:22:03,42.805,6.029,4330,1995,195.828,59.885,13.287
2017-11-21T17:25:03,42.805,6.029,4330,1995,195.920,59.914,13.287
2017-11-21T17:28:03,42.805,6.029,4330,1995,195.988,59.934,13.287
2017-11-21T17:31:03,42.805,6.029,4330,1995,196.090,59.966,13.287
2017-11-21T17:34:03,42.805,6.029,4330,1995,196.127,59.977,13.287
2017-11-21T17:37:03,42.805,6.029,4330,1995,196.206,60.001,13.287
2017-11-21T17:40:03,42.805,6.029,4330,1995,196.067,59.960,13.288
2017-11-21T17:43:03,42.805,6.029,4330,1995,195.997,59.938,13.287
2017-11-21T17:46:03,42.805,6.029,4330,1995,196.074,59.961,13.287
2017-11-21T17:49:03,42.805,6.029,4330,1995,196.033,59.948,13.287
2017-11-21T17:52:03,42.805,6.029,4330,1995,196.122,59.974,13.286
2017-11-21T17:55:03,42.805,6.029,4330,1995,195.969,59.928,13.286
2017-11-21T17:58:03,42.805,6.029,4330,1995,195.998,59.937,13.286
2017-11-21T18:01:03,42.805,6.029,4330,1995,195.952,59.922,13.286
2017-11-21T18:04:03,42.805,6.029,4330,1995,196.069,59.958,13.286
2017-11-21T18:07:03,42.805,6.029,4330,1995,196.078,59.961,13.286